Notices

What's New in latest Release from April 7th, 2021:

- Updated Glossary, including Speed of Maximum Gust, and Total Hourly Precipitation

- Updated national and regional climate services offices contacts and prices information

- Addition of station inventory lists for 1981-2010, 1971-2000, and 1961-1990 Normals.

If you haven't already, please take our survey and provide feedback about our website: https://eccc.sondage-survey.ca/f/LanguageSelection.aspx?s=442ca660-fcf1-47c0-95a9-59707d6fd709

Hourly Data Report for March 26, 2010

HALIFAX STANFIELD INT'L A
NOVA SCOTIA

44°52'48.060" N
63°30'00.050" W
145.40 m
8202250
71395
YHZ

Download Data

Hourly Data (March 2010)
Hourly Data Report for March 26, 2010
TIME
LST
Temp Definition
°C
Dew Point Definition
°C
Rel Hum Definition
%
Precip. Amount Definition
mm

Wind Dir Definition
10's deg

Wind Spd Definition
km/h
Visibility Definition
km
Stn Press Definition
kPa
Hmdx Definition


Wind Chill Definition


Weather Definition


00:00 3.9 -4.5 54   20 26 24.1 99.01     Cloudy
01:00 3.9 -3.1 60   19 28 24.1 98.98     Cloudy
02:00 3.3 1.1 85   21 28 19.3 98.96     Rain Showers
03:00 3.2 2.4 94   18 20 19.3 98.83     Rain Showers
04:00 3.9 3.4 97   20 32 16.1 98.76     Rain Showers
05:00 4.9 4.4 97   20 28 6.4 98.71     Rain Showers,Fog
06:00 4.9 4.5 97   20 20 3.2 98.67     Rain Showers,Fog
07:00 5.0 4.7 98   20 17 2.4 98.68     Rain Showers,Fog
08:00 5.0 4.7 98   17 11 2.4 98.63     Rain Showers,Fog
09:00 5.4 5.0 97   19 13 3.2 98.62     Rain Showers,Fog
10:00 5.5 5.1 97   27 7 3.2 98.66     Rain Showers,Fog
11:00 -0.7 -1.7 93   36 35 4.8 98.73   -8 Rain,Ice Pellets
12:00 -1.8 -2.8 93   35 35 1.2 98.84   -9 Snow
13:00 -1.8 -3.2 90   36 30 2.4 98.85   -9 Snow
14:00 -2.1 -3.6 89   36 28 2.4 98.88   -9 Snow
15:00 -3.2 -4.9 88   35 35 2.4 98.97   -11 Snow
16:00 -3.8 -6.6 81   34 37 19.3 99.04   -12 Cloudy
17:00 -4.0 -9.3 67   35 28 24.1 99.14   -11 Cloudy
18:00 -4.7 -9.5 69   35 28 24.1 99.28   -12 Mostly Cloudy
19:00 -5.1 -9.8 70   35 32 24.1 99.32   -13 Mostly Cloudy
20:00 -5.2 -10.9 64   36 26 24.1 99.46   -13 Mostly Cloudy
21:00 -5.6 -11.8 62   36 28 24.1 99.54   -14 Mostly Cloudy
22:00 -6.1 -11.4 66   35 33 24.1 99.59   -15 Mostly Cloudy
23:00 -6.5 -11.7 67   35 26 24.1 99.67   -14 Mostly Cloudy

Notes on Data Quality.

Legend

  • E = Estimated
  • M = Missing
  • NA = Not Available*
  • [empty] = Indicates an unobserved value
Date modified: